Columbia, MO

1:11 AM CDT on May 30, 2017 (GMT -0500)
Columbia Regional

Weather History for KCOU - November, 2010

Change the Weather History Date:

Saturday, November 13, 2010

  Actual Average Record
Temperature  
Mean Temperature 47 °F 46 °F  
Max Temperature 59 °F 55 °F 82 °F (1999)
Min Temperature 34 °F 36 °F 7 °F (1986)
Degree Days  
Heating Degree Days 18 19  
Month to date heating degree days 179 216  
Since 1 July heating degree days 406 581  
Cooling Degree Days 0 0  
Month to date cooling degree days 0 0  
Year to date cooling degree days 1500 1247  
Moisture  
Dew Point 37 °F    
Average Humidity 80    
Maximum Humidity 89    
Minimum Humidity 70    
Precipitation  
Precipitation T in 0.12 in 1.35 in (1972)
Month to date precipitation 0.34 1.39  
Year to date precipitation 42.21 38.32  
Snow  
Snow 0.00 in 0.00 in T in (2014)
Month to date snowfall 0.0 0.2  
Since 1 July snowfall 0.0 0.2  
Since 1 September snowfall 0.0 0.2  
Snow Depth 0.00 in    
Sea Level Pressure  
Sea Level Pressure 30.04 in    
Wind  
Wind Speed 13 mph (WSW)    
Max Wind Speed 28 mph    
Max Gust Speed 36 mph    
Visibility 10 miles    
Events Rain    
T = Trace of Precipitation, MM = Missing Value Source: NWS Daily Summary

Daily Weather History Graph

Daily Weather History Graph

Search for Another Location

Airport or City:

Trip Planner

Search our weather history database for the weather conditions in past years. The results will help you decide how hot, cold, wet, or windy it might be!

Date:

Astronomy

Nov. 13, 2010 Rise Set
Actual Time 6:49 AM CST 4:56 PM CST
Civil Twilight 6:20 AM CST 5:25 PM CST
Nautical Twilight 5:48 AM CST 5:57 PM CST
Astronomical Twilight 5:17 AM CST 6:28 PM CST
Moon 12:46 PM CST (11/13) No Moon Set
Length of Visible Light 11h 04m
Length of Day
10h 07m
Waxing Crescent, 51% of the Moon is Illuminated
Nov 13
Waxing Crescent
Nov 21
Full
Nov 28
Last Quarter
Dec 5
New
Dec 13
First Quarter

Hourly Weather History & Observations

Time (CST) Temp. Windchill Dew Point Humidity Pressure Visibility Wind Dir Wind Speed Gust Speed Precip Events Conditions
12:54 AM 57.0 °F - 50.0 °F 77% 29.94 in 10.0 mi South 17.3 mph - N/A   Clear
1:38 AM 57.2 °F - 50.0 °F 77% 29.94 in 10.0 mi South 13.8 mph 21.9 mph 0.00 in Rain Light Rain
1:54 AM 55.9 °F - 52.0 °F 87% 29.94 in 10.0 mi SW 13.8 mph - 0.00 in Rain Light Rain
2:10 AM 51.8 °F - 50.0 °F 94% 29.97 in 10.0 mi West 25.3 mph 31.1 mph 0.00 in   Overcast
2:15 AM 48.2 °F - 46.4 °F 93% 29.98 in 10.0 mi West 24.2 mph 31.1 mph 0.00 in   Overcast
2:54 AM 45.0 °F 36.6 °F 42.1 °F 90% 30.00 in 10.0 mi West 21.9 mph 31.1 mph 0.00 in   Overcast
3:01 AM 44.6 °F 35.9 °F 42.8 °F 93% 30.00 in 10.0 mi WSW 23.0 mph 29.9 mph N/A   Overcast
3:45 AM 44.6 °F 38.1 °F 41.0 °F 87% 30.00 in 10.0 mi WSW 13.8 mph 21.9 mph N/A   Overcast
3:54 AM 44.1 °F 35.9 °F 39.9 °F 85% 30.01 in 10.0 mi WSW 19.6 mph 25.3 mph N/A   Overcast
4:10 AM 42.8 °F 34.0 °F 39.2 °F 87% 30.01 in 10.0 mi WSW 20.7 mph 29.9 mph N/A   Overcast
4:54 AM 43.0 °F 34.8 °F 39.0 °F 86% 30.03 in 10.0 mi West 18.4 mph 24.2 mph N/A   Overcast
5:24 AM 41.0 °F 33.1 °F 35.6 °F 81% 30.04 in 10.0 mi West 15.0 mph 31.1 mph N/A   Overcast
5:54 AM 39.9 °F 29.7 °F 35.1 °F 83% 30.05 in 10.0 mi West 23.0 mph 33.4 mph N/A   Overcast
6:13 AM 39.2 °F 28.7 °F 35.6 °F 87% 30.04 in 10.0 mi West 23.0 mph 32.2 mph N/A   Overcast
6:54 AM 39.0 °F 31.4 °F 35.1 °F 86% 30.06 in 10.0 mi West 12.7 mph 26.5 mph N/A   Overcast
7:54 AM 39.0 °F 31.4 °F 35.1 °F 86% 30.07 in 10.0 mi WSW 12.7 mph - N/A   Overcast
8:54 AM 39.9 °F 31.8 °F 35.1 °F 83% 30.08 in 10.0 mi WSW 15.0 mph - N/A   Overcast
9:54 AM 39.9 °F 32.1 °F 35.1 °F 83% 30.08 in 10.0 mi West 13.8 mph 23.0 mph N/A   Overcast
10:54 AM 41.0 °F 33.1 °F 35.1 °F 79% 30.08 in 10.0 mi West 15.0 mph 24.2 mph N/A   Overcast
11:54 AM 42.1 °F 33.6 °F 35.1 °F 76% 30.07 in 10.0 mi WSW 18.4 mph - N/A   Overcast
12:54 PM 43.0 °F 34.5 °F 34.0 °F 71% 30.05 in 10.0 mi West 19.6 mph 24.2 mph N/A   Overcast
1:54 PM 43.0 °F 36.4 °F 35.1 °F 74% 30.05 in 10.0 mi WSW 12.7 mph 24.2 mph N/A   Overcast
2:54 PM 43.0 °F 35.7 °F 34.0 °F 71% 30.06 in 10.0 mi West 15.0 mph - N/A   Overcast
3:15 PM 42.8 °F 37.0 °F 33.8 °F 70% 30.05 in 10.0 mi West 10.4 mph - N/A   Overcast
3:33 PM 42.8 °F 36.2 °F 33.8 °F 70% 30.05 in 10.0 mi West 12.7 mph - N/A   Overcast
3:51 PM 42.8 °F 36.6 °F 33.8 °F 70% 30.04 in 10.0 mi WSW 11.5 mph - N/A   Overcast
3:54 PM 43.0 °F 36.4 °F 34.0 °F 71% 30.05 in 10.0 mi WSW 12.7 mph - N/A   Overcast
4:54 PM 42.1 °F 37.1 °F 35.1 °F 76% 30.06 in 10.0 mi West 8.1 mph - N/A   Overcast
5:54 PM 41.0 °F 38.0 °F 35.1 °F 79% 30.08 in 10.0 mi West 4.6 mph - N/A   Scattered Clouds
6:54 PM 39.9 °F 37.8 °F 34.0 °F 79% 30.09 in 10.0 mi WNW 3.5 mph - N/A   Clear
7:54 PM 39.0 °F 35.7 °F 33.1 °F 79% 30.09 in 10.0 mi West 4.6 mph - N/A   Scattered Clouds
8:54 PM 37.0 °F 33.3 °F 32.0 °F 82% 30.09 in 10.0 mi WNW 4.6 mph - N/A   Clear
9:54 PM 36.0 °F 33.3 °F 32.0 °F 86% 30.10 in 10.0 mi WNW 3.5 mph - N/A   Clear
10:54 PM 36.0 °F 33.3 °F 32.0 °F 86% 30.09 in 10.0 mi WSW 3.5 mph - N/A   Clear
11:54 PM 35.1 °F 30.1 °F 30.9 °F 85% 30.09 in 10.0 mi West 5.8 mph - N/A   Clear